Regional Weather Roundup
Issued by NWS Kansas City/Pleasant Hill, MO

Home | Current Version | Previous Version | Text Only | Print | Product List | Glossary On
Versions: 1 2 3 4 5 6 7 8 9 10 11 12 13 14 15 16 17 18 19 20 21 22 23 24 25 26 27 28 29 30 31 32 33 34 35 36 37 38 39 40 41 42 43 44 45 46 47 48 49 50
000
ASUS43 KEAX 190510
RWREAX

WEATHER ROUNDUP FOR EASTERN KANSAS AND NORTHWEST MISSOURI
NATIONAL WEATHER SERVICE KANSAS CITY/PLEASANT HILL MO
1200 AM CDT THU OCT 19 2017

KSZ040-057-103>105-MOZ028-029-037-043-190600-
...KANSAS CITY METROPOLITAN AREA...

CITY           SKY/WX    TMP DP  RH WIND       PRES   REMARKS
K.C. INTL      CLEAR     57  51  80 SW9       30.05R
K.C. DOWNTOWN  CLEAR     61  51  70 S8        30.05R
LEES SUMMIT    CLEAR     63  50  62 SW12      30.07S
OLATHE - IXD   CLEAR     58  50  75 S10       30.07S
OLATHE - OJC   CLEAR     57  50  77 SW5       30.07R
LAWRENCE       CLEAR     53  50  89 E5        30.05S

$$

MOZ001>008-011>017-020>025-030>033-038>040-044>046-053-054-190600-
...NORTHERN AND CENTRAL MISSOURI...

CITY           SKY/WX    TMP DP  RH WIND       PRES   REMARKS
ST. JOSEPH     CLEAR     48  48 100 CALM      30.04S
MOSBY          CLEAR     50  50 100 CALM      30.06S
WARRENSBURG    CLEAR     55  48  76 S5        30.08R
WHITEMAN AFB   CLEAR     56  49  78 S7        30.04R
CLINTON        CLEAR     57  48  72 S6        30.09S
SEDALIA        CLEAR     60  51  72 S8        30.10R
WARSAW         NOT AVBL
CHILLICOTHE      N/A     53  51  93 CALM      30.06S
KIRKSVILLE     CLEAR     51  49  92 CALM      30.07S

$$

MOZ041-047>049-056>058-063>065-088>090-097-190600-
...EASTERN AND SOUTHERN MISSOURI...

CITY           SKY/WX    TMP DP  RH WIND       PRES   REMARKS
ST. LOUIS INTL CLEAR     61  49  64 S7        30.11S
SPIRIT OF STL  CLEAR     56  49  77 CALM      30.10R
COLUMBIA       CLEAR     56  46  69 S8        30.09S
JEFFERSON CITY CLEAR     51  45  79 CALM      30.10R
ROLLA          CLEAR     59  48  67 S14       30.11S
OSAGE BEACH    CLEAR     55  47  74 S3        30.12R
SPRINGFIELD    CLEAR     59  45  59 S12       30.10S
BRANSON        CLEAR     54  46  76 CALM      30.14S
JOPLIN         CLOUDY    55  48  77 S8        30.10R
WEST PLAINS    CLEAR     60  48  64 S8        30.16S

$$

IAZ060-094-KSZ022-034>040-054-083-096-NEZ052-066-093-190600-
...KANSAS...SOUTHEAST NEBRASKA AND IOWA...

CITY           SKY/WX    TMP DP  RH WIND       PRES   REMARKS
TOPEKA         CLEAR     53  53 100 CALM      30.04R
MANHATTAN      CLEAR     50  48  93 CALM      30.04R
EMPORIA        CLOUDY    54  48  80 S9        30.05S
CHANUTE        CLOUDY    56  48  74 S8        30.08R
WICHITA        CLOUDY    58  50  75 S9        30.05R
OMAHA          CLEAR     49  45  86 N7        30.04S
LINCOLN        CLEAR     47  43  86 N5        30.06S
FALLS CITY     CLEAR     52  48  86 CALM      30.03S
LAMONI         CLEAR     56  48  74 S6        30.05S
DES MOINES     CLOUDY    57  48  72 W3        30.03S

$$




USA.gov is the U.S. government's official web portal to all federal, state and local government web resources and services.